Погода в Алате

Погода в Алате : погода сейчас, прогноз погоды и архив. Всё, что Вы хотите узнать о погоде в Алате!

Поиск расширенной информации на нашем сайте:

Другие новости

Новости СМИ2

Главная страница сайта

Новости сайта

02.10.2013

Напоминаем, что на нашем новом сайте вы можете получить высокодетализированные прогнозы погоды по пунктам России, СНГ и мира (включающие важные для авиации метеовеличины, такие как направление и скорость ветра, видимость, явления погоды, количество и форма облачности, нижняя и верхняя граница облачности), а также ознакомиться с разнообразными материалами по авиационной метеорологии и подборкой полезных ссылок на эту тему.

Сайт Метеоцентр.Азия посвящён разработке технологий оптимизации авиаметеорологического обслуживания, включая проектирование и перспективное создание нескольких автоматизированных авиаметеорологических систем:
- система выпуска высокодетальных прогностических карт явлений погоды для нижнего воздушного пространства по России и ближнему зарубежью;
- система верификации прогнозов TAF (выпускаемых синоптиками официальных АМСГ РФ и ближнего зарубежья) и AUTOTAF (выпускаемых сайтом Метеоцентр.Азия) - выявление ошибок, онлайн-сопоставление с фактической погодой METAR, автоматическое внесение коррективов в прогнозы при резком отклонении фактической погоды от прогноза, подсчёт оправдываемости прогнозов по элементам и в целом;
- система обработки, анализа и отображения авиаметеорологической информации для применения провайдерами метеорологической информации.

Рекомендуем: Подробности разливной лимонад оптом на нашем сайте.

Погода в Алате - сегодня

Время (UTC), дата Ветер
(°,м/с) 
Видим.   Явления Облачность Т
(°С)
Тd
(°С)
f(%) Тe
(°С)
Pmin
(гПа)
dP
(гПа)
Po
(мм)
O2
(г/м3)
Тmin Tmax R s Состояние
почвы
12 24.04.17 320 (СЗ) 16-18{24}  10 км  {ливн. осадки}  10/0 средняя 
[As op]
+15.2 +6.5 56 +13  1012.8  0.7  761  289           
15 24.04.17 340 (С) 10 км    8/0 средняя 
[Ac trans]
+13.4 +4 53 +12  1015.9  -3.1  763  293         
18 24.04.17 тихо ()   4000 м    ясно 
+11.1 +4 62 +11  1018.5  2.6  765  296    +22.5       
21 24.04.17 тихо ()   4000 м    ясно 
+9.3 +5.3 76 +9  1018.4  -0.1  765  297           
00 25.04.17 тихо ()   4000 м    ясно 
+9.1 +4.3 72 +9  1018.5  0.1  765  298           
03 25.04.17 тихо ()   10 км    4/0 средняя 
[Ac trans]
+11.1 +6.2 72 +11  1020.7  2.2  767  296           
06 25.04.17 020 (С) 10 км    3/0 средняя 
[Ac trans]
+15.6 +7.1 57 +15  1022.5  1.8  768  292           
09 25.04.17 320 (СЗ) 18-18{24}  10 км    5/0 средняя 
[Ac trans]
+15.2 +5 51 +13  1023.7  1.2  769  293           
12 25.04.17 340 (С) 18-20{24}  10 км    10/0 средняя 
[As op]
+11.3 +4.5 63 +8  1024.9  1.2  770  297           
15 25.04.17 320 (СЗ) 16-18{24}  10 км    10/10 600 м 
[Sc]
+9.8 +3.4 64 +6  1027.2  2.3  772  300           
18 25.04.17 320 (СЗ) 16  4000 м    10/0 средняя 
[As op]
+11.1 +0 46 +8  1029.5  2.3  774  300    +16.2       
21 25.04.17 340 (С) 10  4000 м    8/0 средняя 
[Ac trans]
+12 -2.5 36 +10  1030.5  774  299           
00 26.04.17 320 (СЗ) 12-14{18}  4000 м    10/0 средняя 
[Ac As]
+12.6 -0.2 41 +10  1030.9  0.4  775  298           
03 26.04.17 320 (СЗ) 10  10 км    10/0 средняя 
[Ac As]
+12.5 +0 42 +11  1033.5  2.6  777  299           
06 26.04.17 340 (С) 10 км    9/0 средняя 
[Ac As]
+14.5 +4.3 50 +15  1035.1  1.6  778  297           
09 26.04.17 110 (В) 10 км    9/0 средняя 
[Ac As]
+14.4 +4.5 51 +15  1035  -0.1  778  297           
12 26.04.17 090 (В) 10 км    6/0 верхняя 
[Ci fib]
+14.2 +3.6 49 +14  1034.1  -0.9  777  297           
15 26.04.17 тихо ()   10 км    10/0 средняя 
[Ac As]
+12.4 +5.6 63 +12  1034  -0.1  777  299           
18 26.04.17 тихо ()   4000 м    8/0 средняя 
[Ac trans]
+11.9 +4.6 61 +12  1034.5  0.5  777  299    +15.1       
21 26.04.17 тихо ()   4000 м    ясно 
+9.3 +1.3 57 +9  1033.6  -0.9  777  303           
00 27.04.17 тихо ()   4000 м    ясно 
+9.3 +0 52 +9  1032.9  -0.7  776  302           
03 27.04.17 тихо ()   10 км    10/0 средняя 
[Ac trans]
+10.7 +3.4 61 +11  1033.5  0.6  777  301           
09 27.04.17 090 (В) 10 км    9/0 средняя 
[Ac As]
+15.6 -0.9 32 +16  1033.1  -1  776  296           
12 27.04.17 070 (В) 10 км    10/0 средняя 
[Ac As]
+15.9 -1.2 31 +17  1031.6  -1.5  775  295           
15 27.04.17 тихо ()   10 км    9/0 средняя 
[Ac As]
+14.1 +0.6 40 +14  1030.9  -0.7  775  297           
Время (UTC), дата Ветер
(°,м/с) 
Видим.   Явления Облачность Т
(°С)
Тd
(°С)
f(%) Тe
(°С)
Pmin
(гПа)
dP
(гПа)
Po
(мм)
O2
(г/м3)
Тmin Tmax R s Состояние
почвы

Для получения пояснительной информации подведите курсор к названию столбца.

ПОГОДА в Алате - архив

Всё, что Вы хотите узнать о погоде в Алате - удобно и подробно!

Выберите нужную дату (начиная с 1 января 2015* года) и нажмите кнопку "Найти".
Будут отображены архивные сводки погоды по пункту Алат, начиная с указанной даты.


Отображать данные в формате CSV (для использования в таблицах Excel)


Внимание! Наш архив погоды предназначен исключительно для личного некоммерческого использования в познавательных целях. Если Вам необходимы официальные справки о состоянии погоды (для производственных, юридических, коммерческих и т.п. целей), обращайтесь в органы Росгидромета.

*Примечание: данная дата относится к архиву по метеостанциям СССР (Россия, СНГ, Балтия).
Архив по метеостанциям Зарубежной Европы и Азии (кроме Китая) хранится 10 дней, по другим регионам земного шара (Китай, Африка, Америка, Австралия, Океания) - 1 день.

Алат - район местоположения метеостанции


Название, широта, долгота, высота метеостанции:
Алат 40°ш. 49.4°д. -16 м над ур. моря [Азербайджан]

Дополнительная информация

В oтличие oт бoльшинства пoгoдных сайтoв мы публикуем пoдрoбную метеoинфoрмацию в детальнoм прoфессиoнальнoм фoрмате.

Характеристики температуры и влажнoсти вoздуха измеряются на высoте 2 м в тени вдали oт зданий и деревьев.
Скoрoсть ветра измеряется на высoте 10 м (на урoвне рoста челoвека скoрoсть ветра ниже в 1.5-2 раза). Если метеoстанция нахoдится в гoрoде или в лесу, тo скoрoсть ветра занижена на 2-4 м/с пo сравнению с oткрытым местoм. Скoрoсть ветра над акватoриями крупных рек и oзёр, а также на вершинах хoлмoв на 2-5 м/с выше, чем в oбычных услoвиях.
Атмoсфернoе давление в разных тoчках местнoсти мoжет значительнo oтличаться oт давления на метеoстанции, в зависимoсти oт услoвий рельефа (при пoдъёме на 10 м давление пoнижается примернo на 1 мм рт.ст.).